| time (UTC) | temp F | wind direction | speed MPH | gust MPH | rain 1hr in | rain 24hr in | rain mn in | humidity % | barometer mb |
| 20260904114526 | 73 | 147 | 0.0 | 0.0 | 0.00 | 0.01 | 0.00 | 95 | 1015.4 |
| 20260904113032 | 73 | 146 | 0.0 | 0.0 | 0.00 | 0.01 | 0.00 | 95 | 1015.5 |
| 20260904111508 | 74 | 146 | 0.0 | 0.0 | 0.00 | 0.01 | 0.00 | 94 | 1015.5 |
| 20260904110014 | 74 | 146 | 0.0 | 0.0 | 0.00 | 0.01 | 0.00 | 94 | 1015.5 |
| 20260904104520 | 74 | 146 | 0.0 | 0.0 | 0.00 | 0.01 | 0.00 | 94 | 1015.5 |
| 20260904103031 | 74 | 146 | 0.0 | 0.0 | 0.00 | 0.01 | 0.00 | 94 | 1015.3 |
| 20260904101530 | 74 | 146 | 0.0 | 0.0 | 0.00 | 0.01 | 0.00 | 94 | 1015.2 |
| 20260904100009 | 74 | 146 | 0.0 | 0.0 | 0.00 | 0.01 | 0.00 | 94 | 1015.0 |
| 20260904094531 | 74 | 146 | 0.0 | 0.0 | 0.00 | 0.01 | 0.00 | 94 | 1014.9 |
| 20260904093024 | 74 | 146 | 0.0 | 0.0 | 0.00 | 0.01 | 0.00 | 94 | 1014.8 |
| 20260904091534 | 74 | 146 | 0.0 | 0.0 | 0.00 | 0.04 | 0.00 | 94 | 1014.7 |
| 20260904090030 | 75 | 146 | 0.0 | 0.0 | 0.00 | 0.08 | 0.00 | 94 | 1014.9 |
| 20260904084534 | 75 | 146 | 0.0 | 1.0 | 0.00 | 0.13 | 0.00 | 94 | 1014.8 |
| 20260904083019 | 74 | 169 | 0.0 | 1.0 | 0.00 | 0.20 | 0.00 | 94 | 1014.8 |
| 20260904081526 | 74 | 131 | 0.0 | 0.0 | 0.00 | 0.28 | 0.00 | 93 | 1014.7 |
| 20260904080030 | 74 | 152 | 0.0 | 0.0 | 0.00 | 0.34 | 0.00 | 93 | 1014.7 |
| 20260904074529 | 74 | 153 | 0.0 | 0.0 | 0.00 | 0.40 | 0.00 | 93 | 1014.5 |
| 20260904073032 | 74 | 153 | 0.0 | 0.0 | 0.00 | 0.44 | 0.00 | 93 | 1014.5 |
| 20260904071523 | 74 | 155 | 0.0 | 0.0 | 0.00 | 0.52 | 0.00 | 92 | 1014.7 |
| 20260904070005 | 75 | 155 | 0.0 | 0.0 | 0.00 | 0.66 | 0.00 | 92 | 1014.7 |
| 20260904064507 | 75 | 155 | 0.0 | 0.0 | 0.00 | 0.82 | 0.00 | 92 | 1014.7 |
| 20260904063024 | 75 | 155 | 0.0 | 0.0 | 0.00 | 1.01 | 0.00 | 92 | 1014.7 |
| 20260904061531 | 75 | 155 | 0.0 | 0.0 | 0.00 | 1.23 | 0.00 | 92 | 1014.7 |
| 20260904060037 | 75 | 155 | 0.0 | 0.0 | 0.00 | 1.48 | 0.00 | 91 | 1014.5 |
| 20260904054506 | 76 | 155 | 0.0 | 0.0 | 0.00 | 1.76 | 0.00 | 90 | 1014.5 |
| 20260904053010 | 76 | 155 | 0.0 | 0.0 | 0.00 | 1.97 | 0.00 | 90 | 1014.4 |
| 20260904051516 | 76 | 155 | 0.0 | 0.0 | 0.00 | 2.00 | 0.00 | 90 | 1014.4 |
| 20260904050038 | 76 | 155 | 0.0 | 0.0 | 0.00 | 2.00 | 0.00 | 89 | 1014.5 |
| 20260904044529 | 76 | 155 | 0.0 | 0.0 | 0.00 | 2.00 | 2.00 | 89 | 1014.6 |
| 20260904043008 | 77 | 155 | 0.0 | 0.0 | 0.00 | 2.01 | 2.00 | 88 | 1014.7 |
| 20260904041517 | 77 | 155 | 0.0 | 0.0 | 0.00 | 2.02 | 2.00 | 88 | 1014.6 |
| 20260904040035 | 77 | 155 | 0.0 | 0.0 | 0.00 | 2.03 | 2.00 | 87 | 1014.6 |
| 20260904034524 | 78 | 155 | 0.0 | 0.0 | 0.00 | 2.05 | 2.00 | 86 | 1014.5 |
| 20260904033026 | 78 | 155 | 0.0 | 0.0 | 0.00 | 2.05 | 2.00 | 86 | 1014.8 |
| 20260904031530 | 79 | 155 | 0.0 | 0.0 | 0.00 | 2.08 | 2.00 | 85 | 1014.7 |
| 20260904030015 | 80 | 155 | 0.0 | 0.0 | 0.00 | 2.10 | 2.00 | 84 | 1014.5 |
| 20260904024517 | 80 | 155 | 0.0 | 0.0 | 0.00 | 2.14 | 2.00 | 82 | 1014.4 |
| 20260904023026 | 80 | 151 | 0.0 | 0.0 | 0.00 | 2.16 | 2.00 | 82 | 1014.3 |
| 20260904021541 | 81 | 151 | 0.0 | 0.0 | 0.00 | 2.18 | 2.00 | 81 | 1014.0 |
| 20260904020033 | 82 | 151 | 0.0 | 0.0 | 0.00 | 2.30 | 2.00 | 79 | 1013.8 |
| 20260904014514 | 83 | 151 | 0.0 | 0.0 | 0.00 | 2.45 | 2.00 | 76 | 1013.7 |
| 20260904013024 | 84 | 161 | 0.0 | 1.0 | 0.00 | 2.64 | 2.00 | 74 | 1013.4 |
| 20260904011527 | 85 | 166 | 0.0 | 1.0 | 0.00 | 2.66 | 2.00 | 72 | 1013.3 |
| 20260904010034 | 86 | 146 | 0.0 | 1.0 | 0.00 | 2.72 | 2.00 | 71 | 1013.1 |
| 20260904004533 | 86 | 166 | 0.0 | 3.0 | 0.00 | 2.73 | 2.00 | 69 | 1013.0 |
| 20260904003023 | 87 | 138 | 0.0 | 5.0 | 0.00 | 2.73 | 2.00 | 66 | 1012.9 |
| 20260904001538 | 88 | 156 | 1.0 | 6.0 | 0.00 | 2.73 | 2.00 | 65 | 1012.8 |
| 20260904000030 | 89 | 134 | 0.0 | 8.0 | 0.00 | 2.73 | 2.00 | 64 | 1012.8 |
| 20260903234528 | 90 | 147 | 0.0 | 8.0 | 0.00 | 2.73 | 2.00 | 62 | 1012.8 |
| 20260903233041 | 90 | 106 | 2.0 | 7.0 | 0.00 | 2.73 | 2.00 | 62 | 1012.8 |
| 20260903231520 | 91 | 126 | 2.0 | 10.0 | 0.00 | 2.73 | 2.00 | 61 | 1012.7 |
| 20260903230033 | 91 | 268 | 0.0 | 6.0 | 0.00 | 2.73 | 2.00 | 60 | 1012.8 |
| 20260903224531 | 91 | 129 | 2.0 | 7.0 | 0.00 | 2.73 | 2.00 | 60 | 1013.0 |
| 20260903223033 | 90 | 140 | 1.0 | 5.0 | 0.00 | 2.73 | 2.00 | 60 | 1013.1 |
| 20260903221533 | 90 | 115 | 2.0 | 8.0 | 0.00 | 2.73 | 2.00 | 59 | 1013.2 |
| 20260903220026 | 90 | 84 | 1.0 | 10.0 | 0.00 | 2.73 | 2.00 | 62 | 1013.2 |
| 20260903214534 | 90 | 146 | 1.0 | 9.0 | 0.00 | 2.73 | 2.00 | 62 | 1013.4 |
| 20260903213038 | 90 | 109 | 4.0 | 9.0 | 0.00 | 2.73 | 2.00 | 62 | 1013.5 |
| 20260903211534 | 90 | 111 | 2.0 | 13.0 | 0.00 | 2.73 | 2.00 | 63 | 1013.5 |
| 20260903210021 | 90 | 123 | 2.0 | 8.0 | 0.00 | 2.73 | 2.00 | 63 | 1013.5 |
| 20260903204525 | 89 | 87 | 3.0 | 10.0 | 0.00 | 2.73 | 2.00 | 63 | 1013.7 |
| 20260903203030 | 89 | 149 | 1.0 | 9.0 | 0.00 | 2.73 | 2.00 | 63 | 1013.8 |
| 20260903201514 | 89 | 128 | 1.0 | 6.0 | 0.00 | 2.73 | 2.00 | 64 | 1014.0 |
| 20260903200020 | 89 | 195 | 2.0 | 9.0 | 0.00 | 2.73 | 2.00 | 64 | 1014.3 |
| 20260903194523 | 88 | 144 | 2.0 | 10.0 | 0.00 | 2.73 | 2.00 | 65 | 1014.5 |
| 20260903193028 | 88 | 164 | 3.0 | 9.0 | 0.00 | 2.73 | 2.00 | 68 | 1014.8 |
| 20260903191538 | 87 | 104 | 0.0 | 7.0 | 0.00 | 2.73 | 2.00 | 69 | 1014.8 |
| 20260903190016 | 86 | 241 | 2.0 | 11.0 | 0.00 | 2.73 | 2.00 | 70 | 1015.0 |
| 20260903184518 | 87 | 265 | 1.0 | 10.0 | 0.00 | 2.73 | 2.00 | 70 | 1015.3 |
| 20260903183028 | 86 | 304 | 1.0 | 10.0 | 0.00 | 2.73 | 2.00 | 72 | 1015.7 |
| 20260903181528 | 85 | 157 | 4.0 | 12.0 | 0.00 | 2.73 | 2.00 | 72 | 1015.9 |
| 20260903180024 | 85 | 113 | 3.0 | 9.0 | 0.00 | 2.73 | 2.00 | 73 | 1016.2 |
| 20260903174514 | 84 | 137 | 1.0 | 9.0 | 0.00 | 2.73 | 2.00 | 76 | 1016.4 |
| 20260903173003 | 85 | 57 | 1.0 | 9.0 | 0.00 | 2.73 | 2.00 | 74 | 1016.7 |
| 20260903171503 | 85 | 120 | 2.0 | 7.0 | 0.00 | 2.73 | 2.00 | 76 | 1016.6 |
| 20260903170012 | 84 | 241 | 5.0 | 12.0 | 0.00 | 2.73 | 2.00 | 75 | 1016.7 |
| 20260903164513 | 84 | 263 | 2.0 | 12.0 | 0.00 | 2.73 | 2.00 | 76 | 1016.6 |
| 20260903163018 | 83 | 209 | 1.0 | 12.0 | 0.00 | 2.73 | 2.00 | 78 | 1016.7 |
| 20260903161518 | 82 | 144 | 1.0 | 12.0 | 0.00 | 2.73 | 2.00 | 80 | 1016.7 |
| 20260903160009 | 81 | 219 | 1.0 | 8.0 | 0.00 | 2.73 | 2.00 | 81 | 1016.7 |
| 20260903154509 | 81 | 107 | 6.0 | 14.0 | 0.00 | 2.73 | 2.00 | 81 | 1016.6 |
| 20260903153016 | 80 | 273 | 3.0 | 14.0 | 0.00 | 2.73 | 2.00 | 83 | 1016.5 |
| 20260903151523 | 81 | 279 | 1.0 | 10.0 | 0.00 | 2.73 | 2.00 | 84 | 1016.4 |
| 20260903150027 | 80 | 121 | 3.0 | 11.0 | 0.00 | 2.73 | 2.00 | 86 | 1016.4 |
| 20260903144514 | 78 | 131 | 0.0 | 9.0 | 0.00 | 2.73 | 2.00 | 90 | 1016.4 |
| 20260903143012 | 77 | 95 | 0.0 | 8.0 | 0.00 | 2.73 | 2.00 | 92 | 1016.4 |
| 20260903141517 | 76 | 150 | 0.0 | 8.0 | 0.01 | 2.73 | 2.00 | 93 | 1016.6 |
| 20260903140024 | 76 | 126 | 3.0 | 7.0 | 0.01 | 2.73 | 2.00 | 94 | 1016.6 |
| 20260903134525 | 75 | 163 | 2.0 | 8.0 | 0.01 | 2.73 | 2.00 | 94 | 1016.5 |
| 20260903133008 | 75 | 126 | 0.0 | 6.0 | 0.01 | 2.73 | 2.00 | 95 | 1016.4 |
| 20260903131516 | 74 | 232 | 0.0 | 6.0 | 0.00 | 2.72 | 1.99 | 94 | 1016.4 |
| 20260903130023 | 74 | 169 | 0.0 | 4.0 | 0.00 | 2.72 | 1.99 | 95 | 1016.8 |
| 20260903124527 | 74 | 136 | 1.0 | 6.0 | 0.00 | 2.72 | 1.99 | 94 | 1016.7 |
| 20260903123030 | 73 | 148 | 0.0 | 2.0 | 0.00 | 2.72 | 1.99 | 94 | 1016.5 |
| 20260903121522 | 73 | 134 | 0.0 | 1.0 | 0.00 | 2.72 | 1.99 | 94 | 1016.3 |
| 20260903120022 | 73 | 24 | 0.0 | 3.0 | 0.00 | 2.72 | 1.99 | 93 | 1016.0 |